{"data":{"norad_id":67012,"epoch":"2026-09-20T13:30:55.349568Z","epoch_age_seconds":76217,"freshness":"FRESH","line1":"1 67012U 25293K   26263.56314062  .00001868  00000+0  16431-3 0  9993","line2":"2 67012  70.0012 323.2866 0003865 269.5055  90.5661 14.98335939 44078","mean_motion":14.98335939,"eccentricity":0.0003865,"inclination_deg":70.0012,"raan_deg":323.2866,"arg_perigee_deg":269.5055,"mean_anomaly_deg":90.5661,"bstar":0.00016431,"rev_number":4407,"period_min":96.106618183441,"perigee_km":569.35128268352,"apogee_km":574.72376759146,"semimajor_km":6950.1745251375,"source":"CELESTRAK","updated_at":"2026-09-21T09:00:36.070089Z"}}